When you browse on this site, cookies collect data to enhance your experience and personalize the content and advertising you see.
Visit our Privacy Policy to learn more. By continuing to use the site, you agree to this use of cookies and data.

Hourly Weather Sumgayit

Today, 13 August, Thursday

Time Temperature Precipitation Wind Pressure Humidity
00:00 +25°C° 0 mm 4 mps 737 mmHg 55%
01:00 +25°C° 0 mm 3 mps 737 mmHg 57%
02:00 +24°C° 0 mm 3 mps 737 mmHg 58%
03:00 +24°C° 0 mm 2 mps 736 mmHg 60%
04:00 +24°C° 0 mm 2 mps 737 mmHg 60%
05:00 +24°C° 0 mm 2 mps 737 mmHg 59%
06:00 +24°C° 0 mm 2 mps 737 mmHg 59%
07:00 +25°C° 0 mm 2 mps 737 mmHg 52%
08:00 +27°C° 0 mm 2 mps 736 mmHg 45%
09:00 +28°C° 0 mm 2 mps 736 mmHg 38%
10:00 +29°C° 0 mm 2 mps 736 mmHg 36%
11:00 +30°C° 0 mm 3 mps 736 mmHg 34%
12:00 +31°C° 0 mm 3 mps 736 mmHg 31%
13:00 +32°C° 0 mm 4 mps 735 mmHg 32%
14:00 +33°C° 0 mm 4 mps 735 mmHg 33%
15:00 +33°C° 0 mm 5 mps 734 mmHg 33%
16:00 +32°C° 0 mm 5 mps 734 mmHg 34%
17:00 +30°C° 0 mm 5 mps 735 mmHg 34%
18:00 +30°C° 0 mm 4 mps 735 mmHg 35%
19:00 +29°C° 0 mm 4 mps 735 mmHg 35%
20:00 +28°C° 0 mm 4 mps 735 mmHg 35%
21:00 +28°C° 0 mm 4 mps 735 mmHg 35%
22:00 +27°C° 0 mm 3 mps 735 mmHg 37%
23:00 +27°C° 0 mm 3 mps 735 mmHg 38%

Tomorrow, 14 August, Friday

Time Temperature Precipitation Wind Pressure Humidity
00:00 +26°C° 0 mm 2 mps 735 mmHg 40%
01:00 +26°C° 0 mm 2 mps 735 mmHg 43%
02:00 +26°C° 0 mm 2 mps 735 mmHg 45%
03:00 +25°C° 0 mm 2 mps 734 mmHg 48%
04:00 +25°C° 0 mm 2 mps 735 mmHg 48%
05:00 +26°C° 0 mm 3 mps 735 mmHg 48%
06:00 +26°C° 0 mm 3 mps 735 mmHg 48%
07:00 +27°C° 0 mm 5 mps 735 mmHg 46%
08:00 +28°C° 0 mm 7 mps 735 mmHg 44%
09:00 +31°C° 0 mm 9 mps 735 mmHg 43%
10:00 +31°C° 0 mm 9 mps 735 mmHg 42%
11:00 +32°C° 0 mm 9 mps 735 mmHg 41%
12:00 +33°C° 0 mm 10 mps 735 mmHg 40%
13:00 +32°C° 0 mm 10 mps 734 mmHg 42%
14:00 +32°C° 0 mm 11 mps 734 mmHg 44%
15:00 +31°C° 0 mm 11 mps 733 mmHg 47%
16:00 +31°C° 0 mm 11 mps 733 mmHg 48%
17:00 +29°C° 0 mm 11 mps 733 mmHg 50%
18:00 +28°C° 0 mm 11 mps 733 mmHg 52%
19:00 +27°C° 0 mm 10 mps 733 mmHg 56%
20:00 +27°C° 0 mm 10 mps 734 mmHg 60%
21:00 +26°C° 0 mm 9 mps 734 mmHg 64%
22:00 +26°C° 0 mm 8 mps 734 mmHg 61%
23:00 +26°C° 0 mm 8 mps 734 mmHg 58%

Day after tomorrow, 15 August, Saturday

Time Temperature Precipitation Wind Pressure Humidity
00:00 +26°C° 0 mm 7 mps 733 mmHg 55%
01:00 +26°C° 0 mm 7 mps 733 mmHg 55%
02:00 +26°C° 0 mm 7 mps 733 mmHg 56%
03:00 +24°C° 0 mm 7 mps 733 mmHg 56%
04:00 +24°C° 0 mm 7 mps 733 mmHg 55%
05:00 +26°C° 0 mm 8 mps 734 mmHg 53%
06:00 +26°C° 0 mm 9 mps 734 mmHg 51%
07:00 +26°C° 0 mm 10 mps 734 mmHg 52%
08:00 +26°C° 0 mm 12 mps 735 mmHg 53%
09:00 +26°C° 0 mm 13 mps 735 mmHg 53%
10:00 +26°C° 0 mm 14 mps 735 mmHg 56%
11:00 +26°C° 0 mm 14 mps 735 mmHg 58%
12:00 +24°C° 0 mm 15 mps 736 mmHg 60%
13:00 +24°C° 0 mm 15 mps 736 mmHg 57%
14:00 +26°C° 0 mm 15 mps 736 mmHg 53%
15:00 +26°C° 0 mm 15 mps 736 mmHg 50%
16:00 +24°C° 0 mm 14 mps 736 mmHg 50%
17:00 +24°C° 0 mm 14 mps 736 mmHg 50%
18:00 +23°C° 0 mm 13 mps 737 mmHg 50%
19:00 +23°C° 0 mm 12 mps 737 mmHg 51%
20:00 +23°C° 0 mm 12 mps 737 mmHg 52%
21:00 +22°C° 0 mm 11 mps 738 mmHg 52%
22:00 +22°C° 0 mm 11 mps 738 mmHg 51%
23:00 +22°C° 0 mm 10 mps 738 mmHg 49%

16 August, Sunday

Time Temperature Precipitation Wind Pressure Humidity
00:00 +22°C° 0 mm 9 mps 738 mmHg 47%
01:00 +22°C° 0 mm 8 mps 738 mmHg 49%
02:00 +22°C° 0 mm 8 mps 738 mmHg 51%
03:00 +22°C° 0 mm 7 mps 738 mmHg 52%
04:00 +22°C° 0 mm 6 mps 738 mmHg 54%
05:00 +22°C° 0 mm 6 mps 738 mmHg 55%
06:00 +22°C° 0 mm 5 mps 737 mmHg 57%
07:00 +23°C° 0 mm 5 mps 738 mmHg 54%
08:00 +23°C° 0 mm 5 mps 738 mmHg 51%
09:00 +25°C° 0 mm 5 mps 738 mmHg 49%
10:00 +26°C° 0 mm 5 mps 738 mmHg 44%
11:00 +27°C° 0 mm 5 mps 738 mmHg 40%
12:00 +28°C° 0 mm 5 mps 738 mmHg 36%
13:00 +28°C° 0 mm 5 mps 738 mmHg 35%
14:00 +28°C° 0 mm 5 mps 737 mmHg 35%
15:00 +28°C° 0 mm 5 mps 737 mmHg 34%
16:00 +27°C° 0 mm 5 mps 737 mmHg 35%
17:00 +27°C° 0 mm 5 mps 737 mmHg 36%
18:00 +26°C° 0 mm 4 mps 737 mmHg 37%
19:00 +25°C° 0 mm 5 mps 737 mmHg 39%
20:00 +25°C° 0 mm 5 mps 737 mmHg 42%
21:00 +23°C° 0 mm 5 mps 737 mmHg 44%
22:00 +23°C° 0 mm 5 mps 737 mmHg 46%
23:00 +23°C° 0 mm 5 mps 737 mmHg 47%

17 August, Monday

Time Temperature Precipitation Wind Pressure Humidity
00:00 +23°C° 0 mm 6 mps 737 mmHg 48%
01:00 +22°C° 0 mm 6 mps 737 mmHg 50%
02:00 +22°C° 0 mm 6 mps 737 mmHg 52%
03:00 +22°C° 0 mm 7 mps 737 mmHg 55%
04:00 +22°C° 0 mm 7 mps 737 mmHg 56%
05:00 +22°C° 0 mm 8 mps 738 mmHg 57%
06:00 +22°C° 0 mm 8 mps 738 mmHg 58%
07:00 +22°C° 0.1 mm 8 mps 738 mmHg 60%
08:00 +22°C° 0.1 mm 8 mps 739 mmHg 63%
09:00 +22°C° 0.1 mm 8 mps 739 mmHg 66%
10:00 +21°C° 0 mm 8 mps 739 mmHg 67%
11:00 +21°C° 0 mm 9 mps 739 mmHg 68%
12:00 +21°C° 0 mm 9 mps 739 mmHg 69%
13:00 +22°C° 0 mm 8 mps 739 mmHg 64%
14:00 +22°C° 0 mm 8 mps 739 mmHg 59%
15:00 +22°C° 0 mm 8 mps 739 mmHg 55%
16:00 +22°C° 0 mm 7 mps 739 mmHg 54%
17:00 +22°C° 0 mm 6 mps 739 mmHg 53%
18:00 +22°C° 0 mm 6 mps 739 mmHg 52%
19:00 +22°C° 0 mm 5 mps 739 mmHg 53%
20:00 +22°C° 0 mm 4 mps 739 mmHg 54%
21:00 +22°C° 0 mm 4 mps 739 mmHg 55%
22:00 +22°C° 0 mm 3 mps 739 mmHg 55%
23:00 +23°C° 0 mm 2 mps 739 mmHg 55%

18 August, Tuesday

Time Temperature Precipitation Wind Pressure Humidity
00:00 +23°C° 0 mm 1 mps 739 mmHg 55%
01:00 +22°C° 0 mm 1 mps 739 mmHg 57%
02:00 +21°C° 0 mm 1 mps 739 mmHg 60%
03:00 +20°C° 0 mm 1 mps 738 mmHg 62%
04:00 +21°C° 0 mm 1 mps 738 mmHg 60%
05:00 +19°C° 0 mm 0 mps 738 mmHg 58%
06:00 +20°C° 0 mm 0 mps 739 mmHg 56%
07:00 +23°C° 0 mm 1 mps 738 mmHg 52%
08:00 +24°C° 0 mm 1 mps 738 mmHg 47%
09:00 +25°C° 0 mm 1 mps 738 mmHg 43%
10:00 +26°C° 0 mm 2 mps 738 mmHg 40%
11:00 +27°C° 0 mm 2 mps 738 mmHg 37%
12:00 +28°C° 0 mm 3 mps 737 mmHg 34%
13:00 +28°C° 0 mm 4 mps 737 mmHg 35%
14:00 +28°C° 0 mm 4 mps 737 mmHg 35%
15:00 +28°C° 0 mm 5 mps 736 mmHg 36%
16:00 +27°C° 0 mm 5 mps 736 mmHg 40%
17:00 +26°C° 0 mm 5 mps 736 mmHg 45%
18:00 +25°C° 0 mm 5 mps 736 mmHg 49%
19:00 +25°C° 0 mm 4 mps 736 mmHg 52%
20:00 +24°C° 0 mm 3 mps 736 mmHg 54%
21:00 +24°C° 0 mm 2 mps 736 mmHg 56%
22:00 +24°C° 0 mm 2 mps 735 mmHg 57%
23:00 +23°C° 0 mm 2 mps 735 mmHg 58%
Show more